Regional Weather Roundup
Issued by NWS

Home | Current Version | Previous Version | Graphics & Text | Print | Product List | Glossary On
Versions: 1 2 3 4 5 6 7 8 9 10 11 12 13 14 15 16 17 18 19 20 21 22 23 24 25 26 27 28 29 30 31 32 33 34 35 36 37 38 39 40 41 42 43 44 45 46 47 48 49 50
000
ASUS43 KIND 271759
RWRIN

WEATHER ROUNDUP FOR INDIANA
NATIONAL WEATHER SERVICE INDIANAPOLIS IN
100 PM EST SAT DEC 27 2014

NOTE: "FAIR" INDICATES FEW OR NO CLOUDS BELOW 12,000 FEET WITH NO
SIGNIFICANT WEATHER AND/OR OBSTRUCTIONS TO VISIBILITY.

* - STATION DOES NOT REPORT WEATHER SUCH AS PRECIPITATION OR FOG.

+ - STATION NOT QUALITY CONTROLLED BY THE NATIONAL WEATHER SERVICE.
    USE DATA WITH CAUTION...ESPECIALLY DEWPOINT AND RELATIVE
    HUMIDITY OBSERVATIONS.

INZ001>003-010>013-019-020-271900-
NORTHWEST INDIANA

CITY           SKY/WX    TMP DP  RH WIND       PRES   REMARKS
GARY /AIRPORT/ CLOUDY    50  45  81 SW20G36   29.98F HAZE
KNOX *+        CLOUDY    46  42  87 SW17G23   30.01S
VALPARAISO     LGT RAIN  47  46  97 SW18G26   30.00F FOG

$$

LMZ046-743>745-271900-
SOUTHERN LAKE MICHIGAN

STATION/POSITION TIME  TEMP WIND        PRES
                       AIR  DIR/SP/G
                 (UTC) (F)  (DEG/KT/KT) (MB)
MICHIGAN CITY    1700   47  180/ 19/ 25   N/A

$$

INZ004-005-014>016-021>024-271900-
NORTH CENTRAL INDIANA

CITY           SKY/WX    TMP DP  RH WIND       PRES   REMARKS
GOSHEN         CLOUDY    47  45  93 SW18      30.00S FOG
6HR MIN TEMP:  44; 6HR MAX TEMP:  47;

SOUTH BEND     CLOUDY    47  45  93 SW17      30.00R
6HR MIN TEMP:  45; 6HR MAX TEMP:  48;

WARSAW +       CLOUDY    45  45 100 SW10G18   30.03S FOG

$$

INZ006>009-017-018-025>027-271900-
NORTHEAST INDIANA

CITY           SKY/WX    TMP DP  RH WIND       PRES   REMARKS
ANGOLA *+      CLOUDY    45  45 100 SW13      29.99F
FORT WAYNE     CLOUDY    46  43  89 SW18      30.05F
6HR MIN TEMP:  43; 6HR MAX TEMP:  46; 6HR PCP:  0.01;


$$

INZ028-029-035-036-043>045-051>053-271900-
WEST CENTRAL INDIANA

CITY           SKY/WX    TMP DP  RH WIND       PRES   REMARKS
GREENCASTLE +  CLOUDY    45  43  93 SW7       30.09F
LAFAYETTE      CLOUDY    45  45 100 SW10      30.06F FOG
6HR MIN TEMP:  44; 6HR MAX TEMP:  46;

TERRE HAUTE    CLOUDY    47  45  93 SW8       30.10F FOG
6HR MIN TEMP:  44; 6HR MAX TEMP:  47;


$$

INZ030>032-037>040-046>048-054>057-064-065-271900-
CENTRAL INDIANA

CITY           SKY/WX    TMP DP  RH WIND       PRES   REMARKS
ANDERSON       CLOUDY    45  45 100 S12G17    30.09F FOG
CP ATTERBURY + CLOUDY    46  45  93 MISG      30.12F
COLUMBUS       CLOUDY    45  45 100 SW10      30.12  FOG
INDIANAPOLIS   CLOUDY    46  44  93 SW12      30.08F
6HR MIN TEMP:  42; 6HR MAX TEMP:  46; 6HR PCP:  0.01;

-EAGLE CREEK   CLOUDY    46  45  96 SW10      30.07F
6HR MIN TEMP:  42; 6HR MAX TEMP:  46;

KOKOMO *+      CLOUDY    46  45  93 SW17      30.06F
MT COMFORT *+  CLOUDY    46 N/A N/A SW10      30.09F
SHELBYVILLE    CLOUDY    47  44  90 SW12      30.10F FOG
6HR MIN TEMP:  43; 6HR MAX TEMP:  47; 6HR PCP:  0.06;


$$

INZ033-034-041-042-049-050-058-059-271900-
EAST CENTRAL INDIANA

CITY           SKY/WX    TMP DP  RH WIND       PRES   REMARKS
MUNCIE         CLOUDY    46  43  89 SW13G23   30.07F FOG
6HR MIN TEMP:  43; 6HR MAX TEMP:  46; 6HR PCP: TRACE;


$$

INZ060-061-067>069-081>083-085>088-271900-
SOUTHWEST INDIANA

CITY           SKY/WX    TMP DP  RH WIND       PRES   REMARKS
EVANSVILLE     CLOUDY    50  46  86 S7        30.13F
6HR MIN TEMP:  46; 6HR MAX TEMP:  50;

HUNTINGBURG *+ CLOUDY    46  43  87 S9        30.14F
6HR MIN TEMP:  45; 6HR MAX TEMP:  46;


$$

INZ062-063-066-070>080-084-089>092-271900-
SOUTH CENTRAL AND SOUTHEAST INDIANA

CITY           SKY/WX    TMP DP  RH WIND       PRES   REMARKS
BLOOMINGTON    CLOUDY    47  46  97 S9        30.10F FOG
6HR MIN TEMP:  42; 6HR MAX TEMP:  47; 6HR PCP:  0.05;


$$



USA.gov is the U.S. government's official web portal to all federal, state and local government web resources and services.